• In Belarus
  • List of Countries
  • For 7 days
  • Water Temperature
  • Satellite Maps
  • Weather Map
  • Weather Widgets
  • user-avatar
    Login

    Hourly Weather Salawaj

    Today, 18 February, Monday

    Time Temperature Precipitation Wind Pressure Humidity
    00:00 +24°C° 0 mm 1 mps 742 mmHg 67%
    01:00 +23°C° 0 mm 1 mps 742 mmHg 71%
    02:00 +23°C° 0 mm 1 mps 742 mmHg 71%
    03:00 +23°C° 0 mm 1 mps 742 mmHg 71%
    04:00 +23°C° 0 mm 1 mps 742 mmHg 71%
    05:00 +23°C° 0 mm 1 mps 742 mmHg 71%
    06:00 +23°C° 0 mm 1 mps 743 mmHg 70%
    07:00 +24°C° 0 mm 1 mps 743 mmHg 68%
    08:00 +27°C° 0 mm 1 mps 744 mmHg 59%
    09:00 +30°C° 0 mm 1 mps 744 mmHg 51%
    10:00 +34°C° 0 mm 2 mps 744 mmHg 43%
    11:00 +34°C° 0 mm 2 mps 744 mmHg 41%
    12:00 +35°C° 0 mm 2 mps 743 mmHg 39%
    13:00 +35°C° 0 mm 1 mps 743 mmHg 38%
    14:00 +35°C° 0 mm 1 mps 742 mmHg 37%
    15:00 +35°C° 0 mm 1 mps 742 mmHg 37%
    16:00 +34°C° 0 mm 1 mps 742 mmHg 37%
    17:00 +32°C° 0 mm 1 mps 742 mmHg 43%
    18:00 +30°C° 0 mm 1 mps 742 mmHg 50%
    19:00 +27°C° 0 mm 1 mps 742 mmHg 57%
    20:00 +27°C° 0 mm 1 mps 743 mmHg 59%
    21:00 +26°C° 0 mm 1 mps 743 mmHg 62%
    22:00 +25°C° 0 mm 1 mps 743 mmHg 64%
    23:00 +25°C° 0 mm 1 mps 743 mmHg 66%

    Tomorrow, 19 February, Tuesday

    Time Temperature Precipitation Wind Pressure Humidity
    00:00 +24°C° 0 mm 1 mps 743 mmHg 67%
    01:00 +24°C° 0 mm 1 mps 743 mmHg 69%
    02:00 +24°C° 0 mm 1 mps 743 mmHg 69%
    03:00 +23°C° 0 mm 1 mps 743 mmHg 70%
    04:00 +23°C° 0 mm 1 mps 743 mmHg 71%
    05:00 +23°C° 0 mm 1 mps 743 mmHg 70%
    06:00 +24°C° 0 mm 1 mps 743 mmHg 69%
    07:00 +24°C° 0 mm 1 mps 744 mmHg 69%
    08:00 +27°C° 0 mm 1 mps 744 mmHg 59%
    09:00 +31°C° 0 mm 1 mps 745 mmHg 48%
    10:00 +34°C° 0 mm 1 mps 745 mmHg 38%
    11:00 +36°C° 0 mm 1 mps 745 mmHg 34%
    12:00 +37°C° 0 mm 1 mps 744 mmHg 31%
    13:00 +39°C° 0 mm 1 mps 743 mmHg 27%
    14:00 +39°C° 0 mm 1 mps 743 mmHg 28%
    15:00 +37°C° 0 mm 1 mps 742 mmHg 29%
    16:00 +37°C° 0 mm 1 mps 742 mmHg 29%
    17:00 +34°C° 0 mm 1 mps 742 mmHg 36%
    18:00 +31°C° 0 mm 1 mps 742 mmHg 42%
    19:00 +29°C° 0 mm 1 mps 743 mmHg 48%
    20:00 +28°C° 0 mm 1 mps 743 mmHg 50%
    21:00 +28°C° 0 mm 1 mps 744 mmHg 52%
    22:00 +27°C° 0 mm 1 mps 744 mmHg 54%
    23:00 +27°C° 0 mm 1 mps 744 mmHg 56%

    Day after tomorrow, 20 February, Wednesday

    Time Temperature Precipitation Wind Pressure Humidity
    00:00 +26°C° 0 mm 1 mps 744 mmHg 57%
    01:00 +26°C° 0 mm 1 mps 744 mmHg 59%
    02:00 +26°C° 0 mm 1 mps 744 mmHg 60%
    03:00 +25°C° 0 mm 1 mps 744 mmHg 61%
    04:00 +25°C° 0 mm 1 mps 744 mmHg 62%
    05:00 +25°C° 0 mm 1 mps 744 mmHg 63%
    06:00 +25°C° 0 mm 1 mps 745 mmHg 63%
    07:00 +25°C° 0 mm 1 mps 745 mmHg 64%
    08:00 +29°C° 0 mm 1 mps 745 mmHg 54%
    09:00 +32°C° 0 mm 1 mps 746 mmHg 44%
    10:00 +36°C° 0 mm 1 mps 746 mmHg 34%
    11:00 +37°C° 0 mm 1 mps 745 mmHg 31%
    12:00 +39°C° 0 mm 1 mps 744 mmHg 29%
    13:00 +40°C° 0 mm 1 mps 744 mmHg 26%
    14:00 +40°C° 0 mm 1 mps 743 mmHg 26%
    15:00 +40°C° 0 mm 1 mps 742 mmHg 27%
    16:00 +39°C° 0 mm 1 mps 741 mmHg 27%
    17:00 +36°C° 0 mm 1 mps 742 mmHg 33%
    18:00 +33°C° 0 mm 1 mps 742 mmHg 38%
    19:00 +30°C° 0 mm 1 mps 743 mmHg 44%
    20:00 +30°C° 0 mm 1 mps 743 mmHg 46%
    21:00 +29°C° 0 mm 1 mps 744 mmHg 47%
    22:00 +29°C° 0 mm 1 mps 745 mmHg 49%
    23:00 +28°C° 0 mm 1 mps 744 mmHg 50%

    21 February, Thursday

    Time Temperature Precipitation Wind Pressure Humidity
    00:00 +28°C° 0 mm 1 mps 744 mmHg 52%
    01:00 +28°C° 0 mm 1 mps 744 mmHg 54%
    02:00 +27°C° 0 mm 1 mps 744 mmHg 55%
    03:00 +27°C° 0 mm 1 mps 743 mmHg 56%
    04:00 +27°C° 0 mm 1 mps 743 mmHg 56%
    05:00 +26°C° 0 mm 1 mps 744 mmHg 58%
    06:00 +26°C° 0 mm 1 mps 744 mmHg 59%
    07:00 +26°C° 0 mm 1 mps 745 mmHg 61%
    08:00 +30°C° 0 mm 1 mps 745 mmHg 52%
    09:00 +33°C° 0 mm 1 mps 745 mmHg 42%
    10:00 +37°C° 0 mm 1 mps 746 mmHg 33%
    11:00 +39°C° 0 mm 1 mps 745 mmHg 30%
    12:00 +40°C° 0 mm 1 mps 744 mmHg 27%
    13:00 +41°C° 0 mm 1 mps 743 mmHg 25%
    14:00 +41°C° 0 mm 1 mps 742 mmHg 25%
    15:00 +40°C° 0 mm 1 mps 741 mmHg 24%
    16:00 +40°C° 0 mm 1 mps 740 mmHg 24%
    17:00 +36°C° 0 mm 1 mps 741 mmHg 30%
    18:00 +34°C° 0 mm 1 mps 741 mmHg 35%
    19:00 +29°C° 0 mm 0 mps 742 mmHg 40%
    20:00 +30°C° 0 mm 1 mps 742 mmHg 43%
    21:00 +29°C° 0 mm 1 mps 742 mmHg 45%
    22:00 +28°C° 0 mm 1 mps 743 mmHg 47%
    23:00 +28°C° 0 mm 1 mps 742 mmHg 49%

    22 February, Friday

    Time Temperature Precipitation Wind Pressure Humidity
    00:00 +27°C° 0 mm 1 mps 742 mmHg 51%
    01:00 +27°C° 0 mm 1 mps 742 mmHg 53%
    02:00 +26°C° 0 mm 1 mps 742 mmHg 54%
    03:00 +26°C° 0 mm 1 mps 741 mmHg 55%
    04:00 +26°C° 0 mm 1 mps 741 mmHg 56%
    05:00 +26°C° 0 mm 1 mps 742 mmHg 57%
    06:00 +26°C° 0 mm 1 mps 742 mmHg 58%
    07:00 +26°C° 0 mm 1 mps 743 mmHg 58%
    08:00 +30°C° 0 mm 1 mps 744 mmHg 49%
    09:00 +34°C° 0 mm 1 mps 744 mmHg 39%
    10:00 +37°C° 0 mm 1 mps 745 mmHg 29%
    11:00 +37°C° 0 mm 0 mps 744 mmHg 27%
    12:00 +38°C° 0 mm 0 mps 743 mmHg 25%
    13:00 +39°C° 0 mm 0 mps 742 mmHg 23%
    14:00 +38°C° 0 mm 0 mps 741 mmHg 25%
    15:00 +36°C° 0 mm 0 mps 741 mmHg 28%
    16:00 +34°C° 0 mm 0 mps 740 mmHg 31%
    17:00 +32°C° 0 mm 0 mps 741 mmHg 36%
    18:00 +31°C° 0 mm 0 mps 741 mmHg 40%
    19:00 +31°C° 0 mm 1 mps 742 mmHg 45%
    20:00 +30°C° 0 mm 1 mps 742 mmHg 48%
    21:00 +29°C° 0 mm 1 mps 742 mmHg 51%
    22:00 +29°C° 0 mm 1 mps 743 mmHg 54%
    23:00 +28°C° 0 mm 1 mps 743 mmHg 55%

    23 February, Saturday

    Time Temperature Precipitation Wind Pressure Humidity
    00:00 +28°C° 0 mm 1 mps 742 mmHg 56%
    01:00 +28°C° 0 mm 1 mps 742 mmHg 57%
    02:00 +27°C° 0 mm 1 mps 742 mmHg 59%
    03:00 +26°C° 0 mm 1 mps 742 mmHg 60%
    04:00 +26°C° 0 mm 1 mps 742 mmHg 62%
    05:00 +26°C° 0 mm 1 mps 742 mmHg 62%
    06:00 +26°C° 0 mm 1 mps 743 mmHg 62%
    07:00 +26°C° 0 mm 1 mps 743 mmHg 62%
    08:00 +30°C° 0 mm 1 mps 744 mmHg 53%
    09:00 +33°C° 0 mm 1 mps 744 mmHg 45%
    10:00 +37°C° 0 mm 1 mps 744 mmHg 37%
    11:00 +39°C° 0 mm 1 mps 743 mmHg 34%
    12:00 +40°C° 0 mm 1 mps 742 mmHg 31%
    13:00 +40°C° 0 mm 1 mps 741 mmHg 28%
    14:00 +39°C° 0 mm 1 mps 741 mmHg 30%
    15:00 +37°C° 0 mm 1 mps 740 mmHg 33%
    16:00 +36°C° 0 mm 1 mps 740 mmHg 35%
    17:00 +34°C° 0 mm 1 mps 740 mmHg 40%
    18:00 +32°C° 0 mm 1 mps 741 mmHg 45%
    19:00 +30°C° 0 mm 1 mps 741 mmHg 50%
    20:00 +29°C° 0 mm 1 mps 741 mmHg 53%
    21:00 +29°C° 0 mm 1 mps 742 mmHg 56%
    22:00 +28°C° 0 mm 1 mps 742 mmHg 59%
    23:00 +27°C° 0 mm 1 mps 742 mmHg 60%
    Show more